Wind_Speed
32 29 29 32 33 33 33 33 25 27 24 22 19 20 18 16 16 16 18 20 19 19 18 17 17 17 17 17 17 17 16 16 15 15 14 13 13 13 13 13 13 12 11
32 32 27 33 33 34 32 36 27 25 24 23 20 17 17 16 17 17 17 19 19 19 18 16 16 16 16 16 16 16 16 15 14 14 14 13 12 12 12 13 12 11 10
35 33 31 32 35 36 36 30 25 22 21 22 19 17 16 17 17 18 17 17 18 16 16 15 16 15 15 15 15 16 16 16 15 14 13 13 12 11 11 12 12 11 10
33 33 33 34 37 39 35 32 26 23 22 21 20 18 17 16 17 17 17 16 16 16 17 16 15 15 15 15 15 15 15 16 15 15 14 13 13 12 11 12 11 10 11
34 33 36 36 41 41 32 30 25 24 23 20 19 17 15 16 17 17 17 17 16 16 16 17 16 15 15 15 15 15 15 16 16 15 15 14 13 13 13 13 12 12 12
32 36 35 39 41 39 31 29 28 22 25 23 18 14 12 13 16 17 17 16 17 17 16 15 16 16 17 16 16 15 16 16 16 16 16 16 16 16 15 15 15 15 14
34 34 37 38 36 35 35 33 29 28 21 21 19 12 8 9 13 15 16 17 18 18 18 18 17 16 17 20 19 18 18 18 17 17 17 18 19 20 19 19 19 19 19
34 37 39 39 37 30 33 37 33 25 19 25 16 18 5 4 11 14 16 17 18 17 18 20 20 19 18 18 20 22 21 20 20 21 22 21 20 20 20 21 22 23 23
39 39 41 37 34 32 36 38 34 29 19 25 21 12 5 5 10 12 18 18 18 19 18 19 24 23 23 20 20 23 25 24 25 25 27 27 27 26 26 26 26 27 27
39 40 42 39 35 34 32 36 34 32 25 26 20 10 10 12 6 5 11 19 19 21 22 21 23 26 26 24 24 25 27 28 29 29 29 29 30 31 32 33 34 35 34
32 38 38 36 35 34 32 35 34 31 27 26 24 13 8 7 8 3 4 13 18 22 28 27 24 25 28 28 30 30 30 31 32 33 33 34 34 35 37 38 38 39 39
30 33 33 33 32 32 36 36 35 32 32 28 27 24 17 11 8 5 2 8 17 17 25 26 31 30 32 31 31 32 33 34 35 36 36 36 37 37 38 40 42 42 43
27 28 30 29 28 28 31 31 32 35 34 35 34 30 26 24 17 12 8 5 7 11 9 24 31 34 30 33 33 33 34 34 35 37 37 38 38 38 39 41 43 43 44
28 31 29 29 27 23 20 19 27 35 37 33 37 33 30 28 25 20 16 10 4 8 10 7 19 20 17 21 22 21 29 31 30 29 31 34 36 38 38 39 41 42 43
30 33 34 31 29 32 35 33 26 33 36 35 36 35 31 32 32 28 25 19 19 10 8 10 13 14 17 29 30 27 34 36 34 33 33 32 33 37 40 44 44 43 43
30 34 34 34 34 34 38 37 30 28 30 36 35 33 29 28 28 28 23 19 19 22 11 21 20 24 28 31 28 31 36 35 38 43 40 37 39 44 45 49 48 46 47
26 28 30 32 33 35 37 37 34 26 27 31 36 34 31 27 26 27 30 27 21 23 16 23 25 33 31 35 41 41 44 41 40 50 51 53 52 52 51 52 52 52 52
17 22 23 27 29 32 32 33 36 34 27 26 31 34 40 39 40 41 35 34 33 37 28 26 37 32 32 36 42 39 41 39 38 45 52 50 50 52 53 52 53 53 52
15 16 17 18 20 26 28 30 33 33 37 38 36 35 35 32 33 29 29 29 29 30 29 29 32 32 31 31 32 35 36 37 38 42 46 52 53 52 51 48 48 49 50
17 17 17 17 18 19 21 26 29 29 31 32 34 35 33 32 30 29 30 34 35 31 30 29 30 32 31 33 31 31 32 33 34 33 36 40 42 45 46 48 49 48 48
18 19 17 17 18 18 19 21 25 29 30 31 32 33 29 30 33 33 29 30 29 29 29 29 28 28 30 30 30 31 31 33 34 34 35 33 36 34 30 32 38 42 43
11 12 15 16 16 21 23 24 26 28 29 30 28 28 29 32 38 40 42 43 42 35 32 30 31 30 33 32 34 33 32 29 17 31 31 28 24 18 15 17 21 25 24
14 14 14 15 15 16 19 24 26 27 23 26 28 29 30 33 35 37 36 39 42 46 50 45 36 32 27 24 26 28 31 32 29 17 12 2 10 9 8 7 7 4 5
5 5 3 5 13 5 11 20 25 27 31 24 15 16 18 20 18 22 26 27 22 21 25 25 20 12 15 19 23 25 25 24 20 16 9 3 8 10 11 13 9 10 11
14 14 12 12 10 13 9 7 9 11 8 7 2 4 7 10 14 16 17 14 13 2 6 1 5 4 2 5 9 10 10 11 4 5 7 2 4 11 14 13 12 8 8
20 20 23 21 18 19 17 11 6 6 9 11 11 13 18 11 9 8 5 4 9 13 15 13 15 17 19 21 19 13 8 7 5 5 14 5 3 1 2 6 8 10 11
Wind_Direction
196 199 200 192 188 184 184 175 171 169 173 173 172 175 176 173 169 167 167 173 169 165 166 166 165 167 164 163 162 157 158 158 157 159 158 160 159 157 157 153 152 148 143
199 197 198 194 188 188 190 182 173 171 175 174 175 176 173 172 172 174 167 174 176 176 170 171 171 172 169 170 168 166 165 167 168 169 169 170 171 172 170 166 163 162 157
208 206 195 186 187 191 188 175 171 171 171 168 172 172 173 175 181 179 169 175 178 183 174 177 177 178 176 177 177 176 175 178 179 181 181 179 181 184 184 183 179 175 175
209 197 192 185 184 185 177 173 169 168 169 173 168 174 173 172 185 182 178 179 180 185 185 187 187 188 188 186 188 188 186 188 188 191 193 191 189 197 198 203 196 197 195
207 193 189 182 186 185 177 172 172 172 172 176 170 172 175 174 186 186 184 189 190 189 186 192 196 198 197 198 198 200 201 202 199 200 203 204 206 207 214 216 217 214 217
194 187 179 182 180 178 174 173 172 175 175 171 165 164 174 178 186 194 190 193 200 199 195 191 197 204 207 210 210 210 213 215 213 212 213 217 220 222 223 229 231 230 232
193 182 183 191 185 176 175 174 167 166 168 168 151 153 154 180 193 198 199 199 205 206 203 200 200 203 213 214 217 219 223 224 223 224 224 226 229 234 235 238 239 240 244
199 192 187 184 180 176 170 174 171 163 164 173 175 157 162 183 214 207 210 209 212 211 214 209 208 210 210 216 219 222 224 230 230 231 231 241 247 250 252 252 250 250 252
202 193 195 186 180 176 176 178 175 171 164 178 176 164 161 192 174 206 216 217 215 219 223 222 222 222 226 225 228 233 235 231 231 236 241 247 253 256 259 260 260 262 262
197 195 187 187 181 179 178 180 180 179 173 176 183 202 181 151 183 178 213 221 221 224 224 229 229 228 231 231 238 242 246 246 244 242 243 247 249 255 260 262 263 266 267
172 169 176 181 180 178 179 180 181 184 185 179 184 182 172 163 157 150 177 206 222 226 229 232 231 233 235 240 246 250 253 254 254 253 253 253 254 255 257 259 262 264 264
163 173 180 184 179 179 182 183 187 189 189 190 192 197 184 177 182 168 159 196 215 216 224 229 236 240 244 246 251 258 261 261 261 260 261 261 261 261 261 262 262 263 263
156 162 167 169 175 182 188 188 188 194 197 203 202 206 208 210 212 204 204 184 207 216 222 231 238 245 253 252 255 261 266 268 269 267 266 264 264 264 265 266 266 266 266
167 170 168 169 170 176 187 199 208 204 206 211 215 213 216 218 220 219 215 204 209 212 224 218 232 232 253 254 261 281 283 279 277 277 273 268 267 268 270 271 272 271 269
180 188 183 186 192 199 201 204 221 218 214 215 223 225 225 231 236 238 240 242 241 247 235 234 226 225 256 269 268 283 288 274 273 273 272 276 277 277 277 278 272 275 275
173 178 190 198 197 197 200 201 217 224 222 223 224 227 228 233 236 236 245 246 254 254 252 247 239 251 271 253 251 267 278 282 273 273 274 275 274 272 270 275 275 276 277
188 184 187 188 185 197 201 202 211 222 230 228 235 237 232 234 248 251 252 262 259 250 255 267 272 265 244 243 255 268 274 273 271 267 270 266 267 270 275 276 276 277 277
186 195 199 202 205 202 204 207 212 219 225 221 226 228 233 242 246 247 249 250 246 253 248 255 255 251 243 246 255 261 264 264 264 269 278 279 274 273 275 277 278 277 277
195 193 193 196 202 211 207 214 213 213 223 235 237 235 236 232 234 239 239 240 243 248 250 247 254 259 258 256 258 262 259 261 261 261 266 271 272 275 277 279 278 277 276
199 199 203 206 208 208 212 220 220 218 224 232 237 237 240 237 238 238 236 241 245 243 243 242 247 257 262 265 263 260 261 257 260 264 263 265 271 276 280 282 282 279 278
205 205 202 207 211 212 214 215 223 232 236 240 243 245 241 242 244 244 238 245 244 244 244 247 252 256 258 261 257 259 258 262 262 263 264 261 267 271 273 269 271 273 275
207 207 209 213 217 229 237 236 237 239 241 241 240 244 247 251 259 260 259 258 255 252 249 250 255 254 256 255 259 258 261 262 266 265 261 261 260 265 280 288 290 286 281
226 227 228 227 228 216 230 235 240 240 242 244 247 250 248 253 262 262 264 265 265 266 261 260 265 263 266 261 260 257 255 257 270 292 279 337 37 49 41 31 52 76 106
125 146 149 207 172 173 229 233 237 238 239 245 262 258 253 253 252 249 251 255 264 259 262 269 276 286 296 287 277 274 278 288 283 289 305 160 108 96 94 84 73 81 87
84 83 79 83 80 44 24 351 283 255 232 199 209 291 275 271 273 281 275 279 268 236 34 41 184 178 281 310 288 287 283 253 241 40 47 29 77 107 95 87 73 87 97
92 89 80 73 65 48 39 38 52 137 137 108 81 58 53 42 358 325 297 233 147 127 115 91 74 72 67 62 59 53 50 48 41 56 16 60 81 16 113 57 53 42 42
Height
790 794 801 804 809 812 817 823 828 832 839 843 847 850 853 857 861 864 867 870 873 875 877 880 882 884 885 887 889 890 892 894 894 896 897 899 899 899 901 900 901 901 902
787 791 796 802 806 809 815 821 826 832 838 841 847 851 853 857 861 865 867 871 874 876 877 881 883 886 886 888 890 891 892 894 895 896 896 898 900 900 901 900 900 901 902
784 788 793 797 802 808 813 821 826 832 837 841 846 850 854 858 863 866 868 872 875 878 878 881 884 886 888 890 890 891 891 893 895 896 896 897 898 900 901 901 900 900 901
780 783 789 793 798 805 812 817 823 831 836 841 844 849 854 856 864 867 869 872 876 878 879 882 884 887 888 889 891 891 892 892 893 894 896 896 896 899 899 902 901 901 901
775 779 783 788 795 801 810 815 823 828 834 841 845 850 853 857 863 866 868 872 875 878 879 881 884 886 888 890 891 892 893 892 892 894 895 895 896 897 898 899 899 899 899
771 776 780 784 789 798 807 813 819 827 832 838 845 850 855 858 861 865 867 871 874 876 878 879 882 884 886 888 890 891 892 893 893 893 893 894 895 896 896 897 898 898 898
766 771 775 782 788 796 801 809 817 824 832 838 843 851 855 858 861 863 866 868 870 874 874 876 879 881 883 884 886 888 890 891 891 891 891 892 892 894 894 895 895 895 895
763 765 771 777 785 794 799 806 813 822 828 835 838 845 853 859 861 861 864 865 867 870 871 872 873 875 878 880 880 882 886 888 888 889 888 888 888 889 890 891 892 892 892
757 760 766 774 783 790 795 803 809 815 823 831 836 837 847 846 854 858 861 863 864 866 868 870 870 871 873 875 875 877 879 881 883 884 884 884 884 885 885 886 887 887 887
748 754 761 769 779 787 794 800 806 812 819 826 833 835 836 839 844 853 856 858 859 861 862 864 865 866 868 869 869 871 873 875 877 878 879 879 879 879 879 880 880 880 880
747 750 757 768 776 783 790 796 803 810 816 821 826 831 835 837 839 842 845 852 854 854 855 857 859 860 860 861 863 864 867 868 870 870 871 871 872 873 873 872 872 872 871
747 752 759 766 774 781 787 793 800 807 812 819 823 827 829 833 836 838 840 845 845 846 847 851 851 853 855 855 857 858 860 861 862 863 863 863 864 864 864 864 864 863 863
746 752 758 765 773 779 786 793 799 805 810 815 819 823 825 827 831 834 837 840 840 842 842 843 845 847 848 850 851 853 854 854 854 854 854 854 854 855 854 854 854 853 852
745 752 758 766 773 780 785 792 797 802 807 812 816 819 821 824 828 831 833 836 837 839 839 837 839 841 843 845 846 848 847 846 845 845 845 845 846 845 845 845 843 842 841
744 751 757 764 771 777 784 790 794 797 802 807 812 816 818 821 824 827 830 832 831 831 831 834 834 835 838 841 842 842 839 837 838 837 837 837 837 837 835 833 833 832 831
743 748 754 761 768 773 780 786 791 794 798 804 808 810 812 816 820 822 825 827 828 828 827 827 829 829 830 833 833 833 831 829 828 828 827 827 826 825 824 823 821 820 819
746 750 755 760 764 770 776 782 787 791 795 798 800 803 807 810 813 817 818 819 821 825 823 822 821 823 819 821 820 819 818 818 817 815 816 816 814 814 812 810 808 807 805
746 750 754 758 762 766 771 777 781 787 790 793 796 799 801 803 807 808 809 810 813 813 815 814 813 812 811 809 808 808 807 806 805 803 801 801 801 800 799 797 795 793 791
745 749 753 757 760 764 767 772 775 780 783 786 789 791 794 797 799 800 802 803 804 805 805 807 804 802 802 802 799 797 794 794 793 790 788 786 785 785 783 781 779 778 776
742 746 749 753 757 761 764 767 771 775 778 780 782 783 786 788 790 791 793 793 794 795 796 795 794 791 791 790 790 787 783 782 778 779 777 775 775 773 770 769 767 766 764
739 742 746 750 754 757 760 762 765 768 771 773 774 776 777 779 780 782 784 784 785 785 785 785 783 782 780 778 776 775 772 769 767 768 765 765 764 762 761 757 754 753 752
737 740 743 746 749 752 754 756 759 761 763 764 766 767 769 771 771 773 774 775 776 775 772 773 771 769 766 766 765 764 762 761 755 758 755 756 751 750 749 748 746 745 744
734 736 739 742 745 748 748 750 753 756 758 759 759 760 761 760 761 762 763 763 763 763 763 763 760 758 756 757 756 754 753 751 748 746 747 749 749 749 750 748 745 741 740
730 732 735 737 738 740 741 743 745 748 750 753 754 753 754 754 754 754 755 755 754 751 751 752 753 753 751 748 748 746 747 747 747 745 750 748 747 749 749 748 747 745 743
730 731 735 737 739 741 741 741 741 743 745 746 747 747 748 748 747 747 748 748 749 749 751 748 745 745 747 748 744 745 745 741 742 745 743 748 750 748 747 749 750 746 743
733 736 738 740 742 743 743 741 740 741 742 745 746 748 747 746 744 743 742 743 746 749 747 752 752 749 747 747 742 744 744 746 748 747 752 747 752 755 754 753 753 753 749